Location: Izdebno
(52.6670°N, 16.2170°E)
Time: 12:28:23
(UTC+02:00)

Vanguard 2 - Pass Details

Date: 06 February 2023
Orbit: 553 x 2927 km, 32.9° (Epoch: 26 March)

Event Time Altitude Azimuth Distance (km) Brightness Sun altitude
Rises 00:35:29 0° 258° (WSW) 6,036 - -52.7°
Reaches altitude 10° 00:39:42 10° 249° (WSW) 5,284 - -52.6°
Maximum altitude 00:53:21 34° 194° (SSW) 4,085 - -52.1°
Drops below altitude 10° 01:07:45 10° 139° (SE) 5,559 - -51.3°
Exits shadow 01:10:55 - 133° (SE) 6,110 12.0 -51.1°
Sets 01:12:22 0° 130° (SE) 6,376 12.1 -51.0°
